www.pogodaiklimat.ru
ПОГОДА в Потсдаме
Время
(UTC), дата
10 12.10
11 12.10
12 12.10
13 12.10
14 12.10
15 12.10
16 12.10
17 12.10
18 12.10
19 12.10
20 12.10
21 12.10
22 12.10
23 12.10
00 13.10
01 13.10
02 13.10
03 13.10
04 13.10
05 13.10
06 13.10
07 13.10
08 13.10
09 13.10
10 13.10
11 13.10
12 13.10
13 13.10
14 13.10
15 13.10
16 13.10
17 13.10
18 13.10
19 13.10
20 13.10
21 13.10
22 13.10
23 13.10
00 14.10
01 14.10
02 14.10
03 14.10
04 14.10
05 14.10
06 14.10
07 14.10
08 14.10
09 14.10
10 14.10
11 14.10
12 14.10
13 14.10
14 14.10
15 14.10
16 14.10
17 14.10
18 14.10
19 14.10
20 14.10
21 14.10
22 14.10
23 14.10
00 15.10
01 15.10
02 15.10
03 15.10
04 15.10
05 15.10
06 15.10
07 15.10
08 15.10
09 15.10
10 15.10
11 15.10
12 15.10
13 15.10
14 15.10
15 15.10
16 15.10
17 15.10
18 15.10
19 15.10
20 15.10
21 15.10
22 15.10
23 15.10
00 16.10
01 16.10
02 16.10
03 16.10
04 16.10
05 16.10
06 16.10
07 16.10
08 16.10
09 16.10
10 16.10
11 16.10
12 16.10
13 16.10
14 16.10
15 16.10
16 16.10
17 16.10
18 16.10
19 16.10
20 16.10
21 16.10
22 16.10
23 16.10
00 17.10
01 17.10
02 17.10
03 17.10
04 17.10
05 17.10
06 17.10
07 17.10
08 17.10
09 17.10
10 17.10
11 17.10
12 17.10
13 17.10
14 17.10
15 17.10
16 17.10
17 17.10
18 17.10
19 17.10
20 17.10
21 17.10
22 17.10
23 17.10
00 18.10
01 18.10
02 18.10
03 18.10
04 18.10
05 18.10
06 18.10
09 18.10
10 18.10
11 18.10
12 18.10
13 18.10
14 18.10
15 18.10
16 18.10
17 18.10
18 18.10
19 18.10
20 18.10
21 18.10
22 18.10
23 18.10
00 19.10
01 19.10
02 19.10
03 19.10
05 19.10
06 19.10
07 19.10
09 19.10
Ветер
(напр.,м/с)
Видим. Явления Облачность Т
(С)
Тd
(С)
f
(%)
Тe
(С)
Тes
(С)
Комфортность P
(гПа)
Po
(гПа)
Тmin
(С)
Tmax
(С)
R
(мм)
R24
(мм)
S
(см)
ЮЗ 7 50 км 3/1 900 м
[Cu hum Ci fib]
+18.1 +11.0 63 +17 +19 тепло 1010.2 998.5
ЮЗ 6 50 км 6/5 1200 м
[Cu med, cong Ci fib]
+17.9 +12.1 69 +17 +18 тепло 1010.6 998.9
ЮЗ 6 50 км 8/8 1000 м
[Cu Sc]
+18.6 +11.7 64 +19 +19 тепло 1010.3 998.7
ЮЗ 5 50 км 9/8 1200 м
[Cu med, cong Ci fib]
+19.0 +12.4 66 +20 +20 тепло 1010.4 998.8
З 5 50 км 9/9 1380 м
[Cu med, cong]
+18.7 +11.7 64 +19 +19 тепло 1010.8 999.2
З 3 50 км 9/9 1380 м
[Cu med, cong]
+17.9 +12.5 71 +18 +18 тепло 1011.3 999.6
З 4 50 км 9/5 1000 м
[Cu Sc Cs]
+17.4 +12.1 71 +17 +17 тепло 1011.4 999.7
З 3 50 км 6/3 1080 м
[Cu Sc Cs]
+14.9 +11.0 77 +14 +14 тепло 1011.8 1000.0
ЮЗ 4 45 км 6/1 1500 м
[Sc Ac trans Ci fib]
+14.1 +11.5 84 +13 +13 тепло 1011.9 1000.1 +13.8 +19.1
Ю 4 45 км 6/0
[Ac und Ci fib]
+14.3 +11.4 83 +13 +13 тепло 1011.9 1000.1
Ю 5 45 км 9/6 1500 м
[Sc Ac lent Ci fib]
+14.0 +11.2 83 +12 +12 тепло 1011.7 999.9
Ю 4 45 км 9/9 1500 м
[Sc]
+15.3 +11.9 80 +14 +14 тепло 1012.0 1000.2
Ю 6 40 км 6/4 1500 м
[Sc Ci fib]
+15.2 +11.6 79 +14 +14 тепло 1011.4 999.6
Ю 5 40 км 9/9 1500 м
[Sc]
+15.3 +11.7 79 +14 +14 тепло 1011.6 999.8
ЮЗ 6 40 км 9/9 1500 м
[Sc]
+16.5 +12.0 75 +15 +15 тепло 1012.0 1000.3
ЮЗ 5 35 км 8/5 1500 м
[Sc Ci fib]
+16.9 +12.3 74 +16 +16 тепло 1011.8 1000.1
ЮЗ 5 35 км 9/9 1500 м
[Sc]
+16.0 +12.5 80 +15 +15 тепло 1012.0 1000.2
ЮЗ 5 35 км 8/1 1500 м
[Sc Ci]
+15.0 +12.5 85 +14 +14 тепло 1012.0 1000.2
ЮЗ 4 30 км 8/0
[Ac lent Ci fib]
+14.5 +12.5 88 +13 +13 тепло 1012.0 1000.2
Ю 5 30 км 6/0
[Ac und Ci fib]
+14.1 +12.2 88 +12 +12 тепло 1012.3 1000.5
Ю 4 30 км 8/5 1500 м
[Sc Ci fib]
+14.2 +12.3 88 +13 +13 тепло 1012.6 1000.8 +13.8 +17.1
Ю 5 40 км 4/1 2000 м
[Sc Ci fib]
+14.6 +12.3 86 +13 +13 тепло 1012.9 1001.1
ЮЗ 6 40 км 6/1 2000 м
[Sc Ac und Ci fib]
+17.0 +13.3 79 +16 +16 тепло 1013.1 1001.4
ЮЗ 4 40 км 4/3 1500 м
[Sc Ci fib]
+18.4 +14.1 76 +19 +20 тепло 1013.3 1001.6
ЮЗ 5 40 км 3/1 1500 м
[Sc Ci fib]
+21.0 +14.6 67 +24 +26 комфорт 1012.9 1001.3
ЮЗ 4 40 км 4/1 2000 м
[Sc Ac und Ci fib]
+22.6 +15.0 62 +26 +29 жарко 1012.7 1001.2
Ю 5 40 км 5/0
[Ac und Ci fib]
+22.9 +16.0 65 +27 +29 душно 1012.7 1001.2
Ю 4 35 км 6/0
[Ac und]
+23.4 +15.7 62 +28 +29 душно 1012.3 1000.8
Ю 4 35 км 9/0
[Ac As]
+22.1 +16.1 69 +26 +27 душно 1012.0 1000.5
Ю 4 40 км в посл. час дождь 8/1 2000 м
[Sc Ac As]
+21.1 +17.2 78 +25 +25 комфорт 1011.6 1000.1 0.0
ЮВ 3 40 км 8/0
[Ac As]
+20.7 +16.6 77 +24 +24 комфорт 1011.2 999.7
ЮВ 4 40 км 9/0
[Ac As]
+20.1 +16.3 79 +23 +23 комфорт 1010.9 999.3
Ю 6 40 км в посл. час дождь 4/0
[Ac trans]
+20.6 +15.3 72 +23 +23 комфорт 1010.7 999.2 +14.1 +24.0 0.0
Ю 6 40 км 3/0
[Ac trans]
+20.2 +15.0 72 +22 +22 комфорт 1010.7 999.1
Ю 5 45 км 5/0
[Ac und]
+19.8 +14.5 71 +22 +22 комфорт 1010.5 998.9
Ю 6 45 км 3/0
[Ac trans]
+19.8 +13.8 68 +21 +21 комфорт 1010.6 999.0
ЮЗ 5-8
{11}
45 км ясно +18.3 +13.3 73 +18 +18 тепло 1011.3 999.6
ЮЗ 6 45 км 3/0
[Ac und]
+18.3 +13.0 71 +18 +18 тепло 1011.4 999.7
ЮЗ 5 45 км 8/0
[Ac und]
+18.5 +13.1 71 +19 +19 тепло 1011.6 1000.0
ЮЗ 6 45 км 5/0
[Ac trans]
+19.1 +13.3 69 +20 +20 тепло 1011.7 1000.1
ЮЗ 6 45 км 4/0
[Ac lent Ci]
+18.3 +13.4 73 +18 +18 тепло 1012.2 1000.5
ЮЗ 5 45 км 4/0
[Ci]
+17.2 +13.3 78 +17 +17 тепло 1012.6 1000.9
ЮЗ 5 45 км 4/0
[Ci fib]
+17.1 +13.3 78 +16 +16 тепло 1012.8 1001.1
ЮЗ 6 45 км 4/0
[Ci]
+16.2 +13.1 82 +15 +15 тепло 1013.3 1001.5
ЮЗ 4 40 км 6/0
[Ac trans Ci]
+15.7 +13.0 84 +15 +15 тепло 1014.2 1002.4 +15.7 +20.5
ЮЗ 3 45 км 5/0
[Ci sp]
+15.8 +13.3 85 +15 +16 тепло 1014.8 1003.0
ЮЗ 2 45 км 3/1 600 м
[Cu hum Ac trans Ci fib]
+17.4 +13.7 79 +18 +19 тепло 1015.5 1003.8
ЮЗ 3 45 км 4/1 600 м
[Cu hum Ac trans Ci]
+19.1 +13.2 69 +20 +22 тепло 1015.9 1004.2
З 2 45 км 5/1 800 м
[Cu med, cong Ac trans Ci]
+20.1 +13.9 67 +23 +26 комфорт 1016.0 1004.4
З 2 40 км 6/1 900 м
[Cu med, cong Ci]
+20.8 +13.9 65 +24 +28 комфорт 1015.9 1004.3
СЗ 2 45 км 6/1 900 м
[Cu med, cong Ac trans Ci fib]
+21.6 +13.5 60 +24 +27 комфорт 1015.6 1004.0
С 2 45 км 8/1 1000 м
[Cu med, cong Ac trans Ci]
+21.1 +13.8 63 +24 +25 комфорт 1015.1 1003.5
СВ 2 45 км 6/1 900 м
[Cu hum Ci fib]
+21.0 +14.4 66 +25 +26 комфорт 1014.6 1003.0
В 3 45 км 4/0
[Ci fib]
+20.7 +14.8 69 +24 +24 комфорт 1014.0 1002.4
В 3 45 км 3/0
[Ci fib]
+18.7 +15.3 81 +20 +20 тепло 1013.8 1002.1
В 4 40 км 1/0
[Ci fib]
+17.3 +14.6 84 +17 +17 тепло 1013.7 1002.0
В 4 45 км ясно +16.4 +14.4 88 +16 +16 тепло 1013.3 1001.6 +15.3 +22.2
В 5 45 км 4/0
[Ci]
+15.9 +14.3 90 +15 +15 тепло 1012.8 1001.0
В 4 45 км 8/0
[Ci]
+15.8 +14.3 91 +15 +15 тепло 1012.5 1000.7
В 5 45 км 5/0
[Ci fib]
+15.4 +14.3 93 +14 +14 тепло 1012.1 1000.3
В 4 45 км 3/0
[Ci fib]
+14.9 +14.0 94 +14 +14 тепло 1011.8 1000.0
В 4 45 км 3/0
[Ci fib]
+14.2 +13.6 96 +13 +13 тепло 1011.5 999.7
В 4 45 км 3/0
[Ci fib]
+13.8 +13.4 97 +12 +12 тепло 1011.3 999.5
В 5 45 км 4/0
[Ci]
+13.4 +13.0 97 +11 +11 тепло 1010.6 998.8
В 4 45 км 3/0
[Ci fib]
+12.9 +12.6 98 +11 +11 тепло 1010.5 998.6
В 5 45 км 4/0
[Ci]
+12.5 +12.2 98 +10 +10 тепло 1009.8 997.9
В 5 45 км 4/0
[Ci fib]
+12.1 +11.8 98 +10 +10 тепло 1009.5 997.6
ЮВ 5 21 км 8/0
[Ci]
+11.7 +11.5 99 +9 +9 тепло 1009.0 997.1
ЮВ 4 12 км 9/0
[Ci]
+11.6 +11.3 98 +9 +9 тепло 1008.8 996.9 +11.5 +16.5
В 3 15 км 9/0
[Ci fib]
+12.2 +11.9 98 +10 +11 тепло 1008.9 997.0
ЮВ 3 17 км 6/0
[Ci sp]
+13.4 +12.7 96 +12 +13 тепло 1008.6 996.8
ЮВ 2 18 км 5/0
[Ci sp]
+16.1 +13.4 84 +16 +19 тепло 1008.1 996.4
Ю 2 20 км 8/0
[Ci]
+18.5 +13.3 72 +20 +23 тепло 1007.7 996.1
В 3 23 км 8/0
[Ci sp]
+19.8 +14.3 71 +22 +25 комфорт 1006.7 995.2
ЮВ 3 25 км 6/0
[Cs]
+21.0 +14.1 65 +24 +27 комфорт 1006.0 994.5
Ю 2 28 км 3/0
[Ci fib]
+21.1 +14.3 65 +24 +27 комфорт 1005.9 994.4
В 2 28 км 3/0
[Ci fib]
+21.0 +14.5 66 +25 +26 комфорт 1005.6 994.1
ЮВ 2 28 км 3/0
[Ci fib]
+19.9 +15.2 74 +23 +23 комфорт 1005.4 993.9
В 3 22 км 6/0
[Ci]
+18.0 +14.9 82 +18 +18 тепло 1005.3 993.7
ЮВ 3 25 км 9/0
[Ci]
+17.0 +14.6 86 +17 +17 тепло 1005.6 994.0
В 4 25 км 5/0
[Ci fib]
+16.1 +14.3 89 +15 +15 тепло 1005.7 994.0 +11.6 +21.7
В 4 25 км 5/0
[Ci fib]
+15.5 +14.1 91 +14 +14 тепло 1005.6 993.9
ЮВ 3 25 км 8/0
[Ci]
+14.9 +13.8 93 +14 +14 тепло 1005.4 993.7
ЮВ 3 25 км 8/0
[Ci fib]
+13.9 +13.2 96 +13 +13 тепло 1005.3 993.5
ЮВ 3 20 км 3/0
[Ci fib]
+13.4 +12.4 94 +12 +12 тепло 1004.6 992.8
ЮВ 3 18 км 5/0
[Ci]
+13.0 +12.6 97 +12 +12 тепло 1004.5 992.7
ЮВ 3 12 км 5/0
[Ci fib]
+12.2 +11.8 97 +10 +10 тепло 1004.2 992.4
Ю 4 10 км 5/0
[Ci fib]
+11.5 +11.3 99 +9 +9 тепло 1004.6 992.7
З 4 10 км 5/0
[Ci fib]
+10.9 +10.7 99 +8 +8 тепло 1004.3 992.4
З 5 10 км 9/8 1000 м
[Sc Ci fib]
+11.5 +11.3 99 +9 +9 тепло 1004.2 992.3
ЮЗ 4 8000 м 10/9 120 м
[Sc]
+12.1 +11.8 98 +10 +10 тепло 1004.4 992.6
З 6 14 км 10/9 210 м
[St]
+13.6 +13.2 97 +11 +11 тепло 1005.1 993.3
З 8 22 км слаб. дождь 10/9 200 м
[Frnb]
+14.0 +13.2 95 +11 +11 тепло 1005.7 993.9 +10.8 +16.1 0.0
З 8 18 км слаб. дождь 10/9 210 м
[Frnb]
+13.4 +13.0 97 +11 +11 тепло 1006.4 994.6
З 6 16 км слаб. дождь 10/9 240 м
[Frnb]
+13.2 +12.9 98 +11 +11 тепло 1007.1 995.3
З 7 30 км слаб. дождь 10/9 200 м
[Frnb]
+13.3 +12.6 96 +11 +11 тепло 1008.1 996.3 2
З 9 30 км слаб. дождь 10/9 270 м
[Sc]
+12.2 +10.6 90 +9 +9 тепло 1008.8 996.9
ЮЗ 7 5000 м дождь 10/9 180 м
[Frnb]
+11.6 +11.1 97 +8 +8 тепло 1009.7 997.8
ЮЗ 8 15 км слаб. дождь 10/9 240 м
[Sc]
+11.7 +10.3 91 +8 +8 тепло 1010.1 998.2 0.2
ЮЗ 7 18 км слаб. дождь 10/9 270 м
[Sc]
+11.6 +10.9 95 +8 +8 тепло 1010.4 998.5
ЮЗ 6 20 км слаб. дождь 10/9 270 м
[Sc]
+11.8 +11.4 97 +9 +9 тепло 1010.7 998.8
ЮЗ 5 35 км слаб. дождь 9/6 300 м
[Sc Ac As]
+11.9 +11.5 97 +9 +9 тепло 1010.7 998.8 2
ЮЗ 5 40 км в посл. час дождь 8/6 1500 м
[Sc Ac trans]
+12.0 +11.6 97 +9 +9 тепло 1010.8 998.9
ЮЗ 5 35 км 3/1 1440 м
[Sc Ac trans Ci fib]
+10.9 +10.7 99 +8 +8 тепло 1011.2 999.2
Ю 5 45 км {дождь} 1/1 1500 м
[Sc]
+10.6 +10.3 98 +7 +7 тепло 1011.4 999.4 +10.6 +14.1 5
ЮЗ 5-7
{8}
45 км ясно +10.1 +10.0 99 +7 +7 тепло 1011.5 999.5
ЮЗ 5-7
{8}
45 км ясно +10.1 +9.7 97 +7 +7 тепло 1011.8 999.8
ЮЗ 5 45 км 8/5 1380 м
[Sc Ci]
+9.7 +9.5 99 +6 +6 тепло 1011.9 999.9
Ю 5 45 км 9/9 1140 м
[Sc]
+10.4 +10.0 97 +7 +7 тепло 1011.9 999.9
ЮЗ 5 40 км 8/8 1050 м
[Sc]
+11.1 +10.8 98 +8 +8 тепло 1011.9 999.9
Ю 4 40 км 9/9 600 м
[Sc]
+11.6 +11.0 96 +9 +9 тепло 1012.0 1000.1
Ю 5 40 км 9/9 1300 м
[Sc]
+11.8 +11.0 95 +9 +9 тепло 1011.8 999.9
Ю 5 40 км 9/9 1170 м
[Sc]
+12.0 +10.9 93 +9 +9 тепло 1011.7 999.8
Ю 6 40 км 9/9 1110 м
[Sc]
+12.1 +10.8 92 +9 +9 тепло 1011.5 999.6
Ю 5 40 км 9/9 1170 м
[Sc]
+12.3 +10.7 90 +10 +10 тепло 1011.6 999.7
Ю 5 45 км 8/4 1260 м
[Sc Ac trans]
+12.0 +10.3 89 +9 +9 тепло 1011.3 999.4
Ю 5 40 км в посл. час дождь 9/3 1500 м
[Sc Ac As]
+12.3 +9.6 84 +10 +10 тепло 1011.7 999.8 +9.6 +12.4 0.0
Ю 5 40 км 9/6 1500 м
[Sc Ac trans Ci fib]
+12.3 +9.3 82 +10 +10 тепло 1012.1 1000.2
Ю 5 35 км 9/6 1500 м
[Sc Ac As]
+13.3 +9.8 79 +11 +11 тепло 1012.4 1000.5
Ю 5 35 км слаб. дождь 9/9 1500 м
[Sc]
+14.1 +10.2 77 +12 +12 тепло 1012.7 1000.8 0.0
ЮЗ 5 35 км в посл. час дождь 9/9 1500 м
[Sc]
+15.1 +10.1 72 +14 +14 тепло 1012.8 1001.0
ЮЗ 4 35 км в посл. час дождь 9/9 1500 м
[Sc]
+15.6 +11.1 75 +15 +15 тепло 1012.8 1001.0
ЮЗ 4 40 км в посл. час дождь 9/9 960 м
[Sc]
+16.0 +10.9 72 +15 +16 тепло 1012.7 1000.9 0.0
ЮЗ 4 40 км в посл. час дождь 8/4 2000 м
[Sc Ac trans]
+16.8 +11.6 71 +16 +17 тепло 1012.7 1001.0
ЮЗ 4 40 км 9/9 960 м
[Sc]
+16.7 +12.9 78 +16 +16 тепло 1012.7 1001.0
ЮЗ 3 35 км {дождь} 9/9 1110 м
[Sc]
+16.2 +12.3 78 +16 +16 тепло 1013.0 1001.2 0.0
ЮЗ 3 45 км 9/9 1170 м
[Sc]
+16.0 +11.8 76 +16 +16 тепло 1013.2 1001.4
Ю 3 45 км 9/9 1200 м
[Sc]
+15.2 +11.9 81 +15 +15 тепло 1013.2 1001.4
Ю 4 45 км {дождь} 10/9 1000 м
[Sc]
+15.1 +12.1 82 +14 +14 тепло 1013.2 1001.4 +12.2 +17.0 0.0
Ю 4 45 км 9/9 1350 м
[Sc]
+14.3 +11.9 85 +13 +13 тепло 1013.3 1001.5
Ю 4 45 км 5/1 1350 м
[Sc Ac und]
+13.1 +11.3 89 +11 +11 тепло 1013.5 1001.6
Ю 5 50 км 3/1 1300 м
[Sc Ac trans]
+12.8 +10.9 88 +11 +11 тепло 1013.3 1001.4
Ю 5 50 км 6/0
[Ac und]
+13.0 +10.9 87 +11 +11 тепло 1013.0 1001.1
Ю 4 50 км 9/6 1230 м
[Sc Ac As]
+13.3 +11.1 87 +12 +12 тепло 1012.5 1000.6
Ю 3 45 км слаб. дождь 10/9 1000 м
[Sc]
+13.3 +10.9 85 +12 +12 тепло 1012.6 1000.7 0.0
Ю 3 27 км дождь 10/9 840 м
[Sc]
+12.5 +11.4 93 +11 +11 тепло 1012.2 1000.3
Ю 4 30 км в посл. час дождь 10/9 120 м
[Sc]
+12.5 +11.9 96 +10 +10 тепло 1011.7 999.8
Ю 5 28 км в посл. час дождь 9/9 90 м
[Sc]
+12.5 +12.1 97 +10 +10 тепло 1011.5 999.6 0.4
Ю 4 18 км в посл. час дождь 9/9 90 м
[Sc]
+12.2 +11.7 97 +10 +10 тепло 1011.3 999.4
Ю 5 30 км 8/8 1050 м
[Sc]
+12.0 +11.5 97 +9 +9 тепло 1011.2 999.3
Ю 6 16 км {дождь} 3/3 1000 м
[Sc Ci fib]
+11.5 +11.1 97 +8 +8 тепло 1011.0 999.1 +11.5 +15.1 0.4
Ю 4 45 км 5/1 1000 м
[Sc Ac und Ci]
+15.5 +12.4 82 +15 +16 тепло 1010.8 999.0
Ю 3 50 км 6/1 700 м
[Cu Sc Ci]
+17.4 +12.1 71 +17 +20 тепло 1010.5 998.8
Ю 3 50 км 8/1 800 м
[Cu Sc Ci]
+17.6 +12.3 71 +18 +20 тепло 1009.8 998.1
Ю 5 50 км 9/1 840 м
[Cu Sc Cs]
+18.3 +12.3 68 +18 +20 тепло 1008.8 997.2
Ю 6 50 км 9/3 900 м
[Cu Sc Ac und Cs]
+18.1 +12.1 68 +18 +18 тепло 1008.5 996.9
Ю 4 50 км 9/3 1000 м
[Cu Sc Ac As Cs]
+17.5 +12.9 74 +17 +18 тепло 1008.0 996.4
Ю 4 50 км 8/0
[Ac As Ci sp]
+17.8 +13.2 74 +18 +18 тепло 1007.7 996.1
Ю 5 50 км осадки на расстоянии 9/3 1080 м
[Cu Sc Ac und Ci sp]
+16.8 +13.0 78 +16 +16 тепло 1007.9 996.2
Ю 5 10 км ливневой дождь 10/9 1080 м
[Cb calv]
+16.3 +13.3 82 +15 +15 тепло 1008.3 996.6
ЮЗ 5 40 км в посл. час ливневой дождь 10/9 600 м
[Cu Sc]
+13.5 +13.1 97 +11 +11 тепло 1009.0 997.2 +11.4 +18.5 2
З 6 45 км в посл. час ливневой дождь 8/6 840 м
[Cu Sc Ac As]
+12.6 +12.1 97 +10 +10 тепло 1009.5 997.6
З 5 50 км 8/5 1200 м
[Sc Ac trans]
+10.8 +9.6 92 +8 +8 тепло 1010.7 998.7
ЮЗ 5 50 км {ливн. осадки} 8/1 1260 м
[Sc Ci]
+9.4 +8.4 93 +6 +6 тепло 1010.8 998.8 0.4
ЮЗ 5 50 км 9/0
[Cs]
+9.0 +7.9 93 +5 +5 тепло 1011.2 999.1
ЮЗ 5 50 км 10/0
[Cs]
+9.0 +7.8 92 +5 +5 тепло 1011.5 999.4
ЮЗ 4 50 км {ливн. осадки} 10/0
[Ac und Cs]
+8.9 +7.7 92 +6 +6 тепло 1011.7 999.6 0.4
Ю 4 50 км 10/0
[Ac trans Cs]
+8.8 +7.1 89 +6 +6 тепло 1011.6 999.5
Ю 4 50 км 1/0
[Ac trans Cs]
+9.1 +7.5 90 +6 +6 тепло 1011.4 999.3
Ю 5 50 км 10/0
[As trans]
+9.5 +7.2 86 +6 +6 тепло 1011.5 999.5
Ю 4 50 км 10/0
[As trans]
+9.0 +7.6 91 +6 +6 тепло 1011.3 999.2
Ю 4 40 км 10/0
[Ac As]
+9.4 +7.7 89 +6 +6 тепло 1011.3 999.3 +8.5 +13.5 0.4
Ю 4 40 км 10/0
[Ac As]
+9.9 +8.1 89 +7 +7 тепло 1011.0 999.0
ЮВ 3 45 км 8/4 1000 м
[Cu Sc Ac As Ci fib]
+12.6 +9.4 81 +11 +12 тепло 1010.6 998.7
Местоположение метеостанции Потсдам (Германия): широта 52.38 долгота 13.07 высота над уровнем моря 100 м.
В архиве по умолчанию представлена погода в Потсдаме за последнюю неделю. Архивные данные за месяц целиком и за предыдущие месяцы, начиная с января 2011 года, Вы можете получить, выбрав интересующий диапазон дат из раскрывающегося списка и нажав кнопку "Найти!".
*Определитесь, кто Вы:
Внимание! Время в таблицах - всемирное. Для получения местного времени необходимо прибавить поправку, которая равна 1 ч.
Смотрите также архив погоды в соседних городах и на ближайших метеорологических станциях:
Партнеры нашего сайта:      
Пояснения к столбцам:
  • Ветер - указаны скорость ветра в м/с - средняя за 10 мин, порывы в срок и между сроками (в фигурных скобках) и направление, откуда дует ветер: С - северный,
  • СВ - северо-восточный, В - восточный, ЮВ - юго-восточный, Ю - южный, ЮЗ - юго-западный, З - западный, СЗ - северо-западный.
  • Видимость - горизонтальная дальность видимости в метрах или километрах. При видимости от 1 до 10 км при отсутствии осадков обычно наблюдается дымка, при ухудшении видимости до 1 км и менее - туман. В сухую погоду видимость может ухудшаться дымом, пылью или мглою.
  • Явления - указаны атмосферные явления, наблюдавшиеся в срок или в последний час перед сроком; фигурными скобками обозначены явления, наблюдавшиеся между сроками (за 1-3 часа до срока); квадратными скобками обозначены град или гололедные отложения с указанием их диаметра в мм.
  • Облачность - указаны через наклонную черту общая и нижняя облачность в баллах и высота нижней границы облаков в метрах; квадратными скобками обозначены формы облаков: Ci - перистые, Cs - перисто-слоистые, Cc - перисто-кучевые, Ac - высококучевые, As - высокослоистые, Sc - слоисто-кучевые, Ns - слоисто-дождевые, Cu - кучевые, Cb - кучево-дождевые. Подробнее классификацию облаков см. в Атласе облаков (PDF).
  • T - Температура воздуха - температура, измеренная на высоте 2 м над землей.
  • Td - Температура точки росы - температура, при понижении до которой содержащийся в воздухе водяной пар достигнет насыщения.
  • f - Относительная влажность воздуха - влажноcть воздуха, измеренная на высоте 2 м над землей.
  • Te - Эффективная температура - температура, которую ощущает одетый по сезону человек в тени. Характеристика душности погоды. При расчете учитывается влияние влажности воздуха и скорости ветра на теплоощущения человека.
  • Tes - Эффективная температура на солнце - температура, которую ощущает человек, с поправкой на солнечный нагрев. Характеристика знойности погоды. Зависит от высоты солнца над горизонтом, облачности и скорости ветра. Ночью, в пасмурную погоду, а также при ветре 12 м/с и более поправка равна нулю.
  • P - Атмосферное давление - приведенное к уровню моря атмосферное давление.
  • Po - Атмосферное давление - измеренное на уровне метеостанции атмосферное давление.
  • Tmin - Минимальная температура - минимум температуры воздуха на высоте 2 м над землей.
  • Tmax - Максимальная температура - максимум температуры воздуха на высоте 2 м над землей.
  • R - Количество осадков - Количество выпавших осадков за период времени, мм. При наведении курсора мыши на число - период времени, за который выпало указанное количество осадков.
  • R24 - Количество осадков - Количество выпавших осадков за 24 часа, мм.
  • S - Снежный покров - Высота снежного покрова, см. При наведении курсора мыши на число - состояние снежного покрова и степень покрытия местности в баллах.